| time (UTC) | temp F | wind direction | speed knots | gust knots | rain 1hr in | rain 24hr in | rain mn in | humidity % | barometer mb |
| 20260507231549 | 60 | 285 | 3.5 | 10.4 | 0.00 | 0.13 | 0.10 | 33 | 1005.5 |
| 20260507230105 | 61 | 309 | 4.3 | 12.2 | 0.00 | 0.13 | 0.10 | 32 | 1005.3 |
| 20260507224544 | 61 | 263 | 5.2 | 13.0 | 0.00 | 0.13 | 0.10 | 32 | 1005.2 |
| 20260507223133 | 62 | 290 | 5.2 | 12.2 | 0.00 | 0.13 | 0.10 | 32 | 1005.2 |
| 20260507221546 | 62 | 46 | 5.2 | 11.3 | 0.00 | 0.13 | 0.10 | 34 | 1005.0 |
| 20260507220047 | 62 | 294 | 8.7 | 17.4 | 0.00 | 0.13 | 0.10 | 32 | 1005.0 |
| 20260507214554 | 62 | 306 | 6.1 | 13.0 | 0.00 | 0.13 | 0.10 | 33 | 1004.7 |
| 20260507213046 | 62 | 1 | 6.1 | 19.1 | 0.00 | 0.13 | 0.10 | 33 | 1004.8 |
| 20260507211548 | 63 | 302 | 0.9 | 13.0 | 0.00 | 0.13 | 0.10 | 33 | 1004.6 |
| 20260507210052 | 63 | 273 | 7.0 | 14.8 | 0.00 | 0.13 | 0.10 | 33 | 1004.6 |
| 20260507204548 | 63 | 314 | 7.0 | 13.9 | 0.00 | 0.14 | 0.10 | 32 | 1004.6 |
| 20260507203045 | 63 | 302 | 7.8 | 16.5 | 0.00 | 0.14 | 0.10 | 31 | 1004.6 |
| 20260507201604 | 63 | 20 | 5.2 | 14.8 | 0.00 | 0.14 | 0.10 | 33 | 1004.7 |
| 20260507200055 | 62 | 315 | 7.8 | 12.2 | 0.00 | 0.14 | 0.10 | 29 | 1004.8 |
| 20260507194552 | 62 | 278 | 5.2 | 14.8 | 0.00 | 0.15 | 0.10 | 31 | 1004.9 |
| 20260507193051 | 62 | 293 | 8.7 | 15.6 | 0.00 | 0.15 | 0.10 | 31 | 1004.9 |
| 20260507191548 | 63 | 311 | 7.8 | 16.5 | 0.00 | 0.15 | 0.10 | 30 | 1004.9 |
| 20260507190052 | 63 | 322 | 6.1 | 14.8 | 0.00 | 0.15 | 0.10 | 33 | 1005.1 |
| 20260507184546 | 62 | 23 | 7.8 | 15.6 | 0.00 | 0.15 | 0.10 | 33 | 1005.2 |
| 20260507183052 | 63 | 304 | 5.2 | 15.6 | 0.00 | 0.15 | 0.10 | 34 | 1005.3 |
| 20260507181556 | 62 | 242 | 7.0 | 13.9 | 0.00 | 0.15 | 0.10 | 35 | 1005.3 |
| 20260507180049 | 62 | 6 | 3.5 | 13.9 | 0.00 | 0.15 | 0.10 | 38 | 1005.6 |
| 20260507174554 | 61 | 326 | 8.7 | 19.1 | 0.00 | 0.15 | 0.10 | 43 | 1005.4 |
| 20260507173049 | 61 | 311 | 3.5 | 13.0 | 0.00 | 0.15 | 0.10 | 46 | 1005.5 |
| 20260507171556 | 60 | 292 | 7.0 | 14.8 | 0.00 | 0.15 | 0.10 | 49 | 1005.7 |
| 20260507170049 | 61 | 6 | 6.1 | 13.9 | 0.00 | 0.15 | 0.10 | 50 | 1005.6 |
| 20260507164551 | 61 | 42 | 6.1 | 13.0 | 0.00 | 0.15 | 0.10 | 51 | 1005.9 |
| 20260507163046 | 60 | 311 | 6.1 | 11.3 | 0.00 | 0.15 | 0.10 | 54 | 1006.0 |
| 20260507161554 | 59 | 265 | 6.1 | 12.2 | 0.00 | 0.15 | 0.10 | 54 | 1006.1 |
| 20260507160051 | 59 | 331 | 4.3 | 9.6 | 0.00 | 0.15 | 0.10 | 53 | 1006.4 |
| 20260507154552 | 60 | 283 | 5.2 | 11.3 | 0.00 | 0.15 | 0.10 | 52 | 1006.5 |
| 20260507153108 | 59 | 256 | 4.3 | 11.3 | 0.00 | 0.15 | 0.10 | 51 | 1006.6 |
| 20260507151556 | 59 | 304 | 4.3 | 10.4 | 0.00 | 0.15 | 0.10 | 52 | 1006.6 |
| 20260507150055 | 58 | 333 | 5.2 | 11.3 | 0.00 | 0.15 | 0.10 | 52 | 1006.9 |
| 20260507144546 | 58 | 271 | 5.2 | 9.6 | 0.00 | 0.15 | 0.10 | 53 | 1006.9 |
| 20260507143053 | 57 | 297 | 0.9 | 7.8 | 0.00 | 0.15 | 0.10 | 57 | 1007.2 |
| 20260507141545 | 57 | 335 | 1.7 | 7.0 | 0.00 | 0.15 | 0.10 | 59 | 1007.1 |
| 20260507140051 | 56 | 62 | 3.5 | 7.0 | 0.00 | 0.15 | 0.10 | 60 | 1007.1 |
| 20260507134552 | 55 | 30 | 3.5 | 10.4 | 0.00 | 0.15 | 0.10 | 62 | 1007.3 |
| 20260507133054 | 55 | 326 | 2.6 | 7.0 | 0.00 | 0.15 | 0.10 | 66 | 1007.6 |
| 20260507131551 | 54 | 290 | 1.7 | 7.0 | 0.00 | 0.15 | 0.10 | 69 | 1007.6 |
| 20260507130103 | 52 | 309 | 4.3 | 7.8 | 0.00 | 0.15 | 0.10 | 70 | 1007.8 |
| 20260507124607 | 52 | 351 | 3.5 | 13.0 | 0.01 | 0.15 | 0.10 | 75 | 1007.7 |
| 20260507123105 | 50 | 303 | 4.3 | 10.4 | 0.01 | 0.15 | 0.10 | 80 | 1007.4 |
| 20260507121555 | 50 | 297 | 2.6 | 7.0 | 0.01 | 0.15 | 0.10 | 84 | 1007.5 |
| 20260507120042 | 49 | 311 | 2.6 | 7.0 | 0.01 | 0.15 | 0.10 | 87 | 1007.5 |
| 20260507114608 | 49 | 300 | 2.6 | 5.2 | 0.00 | 0.14 | 0.09 | 88 | 1007.3 |
| 20260507113047 | 48 | 328 | 1.7 | 3.5 | 0.00 | 0.14 | 0.09 | 89 | 1007.5 |
| 20260507111550 | 48 | 339 | 0.9 | 3.5 | 0.00 | 0.14 | 0.09 | 89 | 1007.3 |
| 20260507110046 | 48 | 296 | 0.9 | 2.6 | 0.01 | 0.14 | 0.09 | 89 | 1007.6 |
| 20260507104550 | 48 | 207 | 0.9 | 2.6 | 0.02 | 0.14 | 0.09 | 89 | 1007.5 |
| 20260507103047 | 48 | 0 | 0.9 | 1.7 | 0.02 | 0.14 | 0.09 | 89 | 1007.0 |
| 20260507101557 | 48 | 338 | 0.9 | 2.6 | 0.05 | 0.14 | 0.09 | 88 | 1007.1 |
| 20260507100056 | 48 | 307 | 1.7 | 7.0 | 0.05 | 0.13 | 0.08 | 87 | 1006.9 |
| 20260507094549 | 49 | 16 | 1.7 | 7.8 | 0.05 | 0.12 | 0.07 | 87 | 1006.8 |
| 20260507093048 | 49 | 333 | 3.5 | 8.7 | 0.05 | 0.12 | 0.07 | 87 | 1006.8 |
| 20260507091548 | 50 | 341 | 3.5 | 9.6 | 0.02 | 0.09 | 0.04 | 86 | 1006.8 |
| 20260507090050 | 50 | 306 | 2.6 | 8.7 | 0.02 | 0.08 | 0.03 | 85 | 1006.9 |
| 20260507084550 | 50 | 298 | 5.2 | 8.7 | 0.02 | 0.07 | 0.02 | 85 | 1006.6 |
| 20260507083105 | 50 | 316 | 3.5 | 8.7 | 0.02 | 0.07 | 0.02 | 85 | 1006.4 |
| 20260507081553 | 51 | 340 | 7.0 | 12.2 | 0.02 | 0.07 | 0.02 | 83 | 1006.6 |
| 20260507080050 | 52 | 319 | 6.1 | 13.9 | 0.01 | 0.06 | 0.01 | 82 | 1006.5 |
| 20260507074558 | 53 | 314 | 7.0 | 12.2 | 0.00 | 0.05 | 0.00 | 80 | 1006.6 |
| 20260507073058 | 53 | 310 | 6.1 | 13.0 | 0.00 | 0.05 | 0.00 | 81 | 1005.8 |
| 20260507071549 | 54 | 331 | 3.5 | 7.0 | 0.00 | 0.05 | 0.00 | 85 | 1006.0 |
| 20260507070047 | 54 | 290 | 2.6 | 11.3 | 0.00 | 0.05 | 0.00 | 85 | 1005.8 |
| 20260507064550 | 54 | 295 | 3.5 | 7.0 | 0.00 | 0.05 | 0.00 | 86 | 1005.9 |
| 20260507063050 | 54 | 21 | 3.5 | 7.0 | 0.00 | 0.05 | 0.00 | 87 | 1005.7 |
| 20260507061545 | 55 | 322 | 4.3 | 9.6 | 0.00 | 0.05 | 0.00 | 86 | 1005.7 |
| 20260507060043 | 55 | 317 | 4.3 | 9.6 | 0.00 | 0.05 | 0.00 | 86 | 1005.9 |
| 20260507054546 | 56 | 285 | 6.1 | 11.3 | 0.00 | 0.05 | 0.00 | 86 | 1006.1 |
| 20260507053048 | 56 | 330 | 6.1 | 10.4 | 0.00 | 0.05 | 0.00 | 87 | 1005.9 |
| 20260507051550 | 57 | 302 | 2.6 | 7.0 | 0.00 | 0.05 | 0.00 | 87 | 1005.8 |
| 20260507050050 | 58 | 326 | 4.3 | 11.3 | 0.00 | 0.05 | 0.00 | 87 | 1005.8 |
| 20260507044549 | 59 | 269 | 4.3 | 9.6 | 0.00 | 0.05 | 0.00 | 90 | 1005.7 |
| 20260507043045 | 59 | 247 | 2.6 | 7.8 | 0.01 | 0.05 | 0.00 | 91 | 1005.8 |
| 20260507041548 | 59 | 249 | 3.5 | 7.8 | 0.01 | 0.05 | 0.00 | 92 | 1005.9 |
| 20260507040046 | 59 | 260 | 3.5 | 7.0 | 0.01 | 0.05 | 0.00 | 92 | 1006.0 |
| 20260507034547 | 59 | 264 | 3.5 | 7.8 | 0.01 | 0.05 | 0.05 | 91 | 1005.7 |
| 20260507033042 | 59 | 234 | 6.1 | 13.0 | 0.00 | 0.04 | 0.04 | 90 | 1005.7 |
| 20260507031541 | 59 | 255 | 6.1 | 10.4 | 0.00 | 0.04 | 0.04 | 90 | 1005.3 |
| 20260507030050 | 59 | 222 | 3.5 | 11.3 | 0.00 | 0.04 | 0.04 | 90 | 1005.1 |
| 20260507024601 | 59 | 263 | 7.0 | 11.3 | 0.00 | 0.04 | 0.04 | 90 | 1005.4 |
| 20260507023047 | 59 | 233 | 5.2 | 10.4 | 0.00 | 0.04 | 0.04 | 90 | 1005.5 |
| 20260507021551 | 58 | 255 | 5.2 | 10.4 | 0.00 | 0.04 | 0.04 | 90 | 1005.4 |
| 20260507020107 | 58 | 214 | 3.5 | 9.6 | 0.00 | 0.04 | 0.04 | 90 | 1005.6 |
| 20260507014605 | 58 | 245 | 5.2 | 10.4 | 0.00 | 0.04 | 0.04 | 91 | 1005.7 |
| 20260507013053 | 58 | 210 | 5.2 | 8.7 | 0.00 | 0.04 | 0.04 | 91 | 1005.8 |
| 20260507011551 | 57 | 295 | 7.0 | 11.3 | 0.00 | 0.04 | 0.04 | 91 | 1005.9 |
| 20260507010050 | 57 | 210 | 6.1 | 10.4 | 0.00 | 0.04 | 0.04 | 91 | 1006.0 |
| 20260507004553 | 57 | 224 | 4.3 | 12.2 | 0.00 | 0.04 | 0.04 | 91 | 1005.9 |
| 20260507003047 | 56 | 207 | 7.0 | 12.2 | 0.01 | 0.04 | 0.04 | 91 | 1006.0 |
| 20260507001553 | 56 | 186 | 4.3 | 13.9 | 0.02 | 0.04 | 0.04 | 91 | 1005.8 |
| 20260507000049 | 56 | 238 | 4.3 | 11.3 | 0.02 | 0.04 | 0.04 | 91 | 1005.7 |
| 20260506234552 | 56 | 219 | 4.3 | 8.7 | 0.02 | 0.04 | 0.04 | 91 | 1005.8 |
| 20260506233048 | 57 | 185 | 3.5 | 11.3 | 0.01 | 0.03 | 0.03 | 91 | 1005.7 |